Regional Weather Roundup
Issued by NWS

Home | Current Version | Previous Version | Text Only | Print | Product List | Glossary On
Versions: 1 2 3 4 5 6 7 8 9 10 11 12 13 14 15 16 17 18 19 20 21 22 23 24 25 26 27 28 29 30 31 32 33 34 35 36 37 38 39 40 41 42 43 44 45 46 47 48 49 50
000
ASUS44 KFWD 062215
RWRTX
NORTH TEXAS HOURLY WEATHER ROUNDUP
NATIONAL WEATHER SERVICE FORT WORTH TX
400 PM CST FRI MAR 06 2015

NOTE: "FAIR" INDICATES FEW OR NO CLOUDS BELOW 12,000 FEET WITH NO
SIGNIFICANT WEATHER AND/OR OBSTRUCTIONS TO VISIBILITY.

TXZ118-119-062300-
DALLAS/FORT WORTH METROPLEX

CITY           SKY/WX    TMP DP  RH WIND       PRES   REMARKS
DFW AIRPORT    SUNNY     51  23  33 SW5       30.46F
DALLAS LOVE    SUNNY     52  23  32 VRB6      30.47F
FTW MEACHAM    SUNNY     52  25  35 MISG      30.45F
DAL-EXECUTIVE  SUNNY     51  24  34 SE5       30.45F
FTW-ALLIANCE   SUNNY     52  23  32 S3        30.45F
FTW-SPINKS     SUNNY     52  21  30 CALM      30.48F
ARLINGTON      SUNNY     52  22  30 VRB3      30.47F
GRAND PRAIRIE  SUNNY     52  27  37 CALM      30.48F
MESQUITE       SUNNY     50  25  37 CALM      30.48F
LANCASTER      SUNNY     49  23  36 CALM      30.49F
$$

TXZ091>094-102>105-117-120-121-131>134-062300-
NORTH CENTRAL TEXAS

CITY           SKY/WX    TMP DP  RH WIND       PRES   REMARKS
SHRMAN/DENISON SUNNY     51  33  49 S6        30.46F
GAINESVILLE    SUNNY     51  28  40 S12       30.46F
BOWIE          SUNNY     53  26  35 S8        30.42F
BRIDGEPORT     SUNNY     53  27  36 SE5       30.45F
DECATUR        SUNNY     52  22  30 SW5       30.44F
DENTON         SUNNY     51  25  36 S7        30.45F
MCKINNEY       SUNNY     50  27  40 VRB3      30.46F
GREENVILLE     SUNNY     50  25  37 CALM      30.48F
TERRELL        SUNNY     52  27  38 NW3       30.48F
WAXAHACHIE     SUNNY     50  29  44 S6        30.48F
CLEBURNE       SUNNY     52  25  35 SE7       30.47F
GRANBURY       SUNNY     54  23  29 CALM      30.46F
$$

TXZ083>090-098>101-113>116-127>130-139>142-154-155-062300-
WESTERN NORTH TEXAS

CITY           SKY/WX    TMP DP  RH WIND       PRES   REMARKS
WICHITA FALLS  SUNNY     54  29  38 S13       30.40F
WF-KICKAPOO    SUNNY     55  28  34 S9G16     30.42F
VERNON         SUNNY     58  21  23 SW10G17   30.38F
ABILENE        SUNNY     54  26  34 S8        30.40F
ABILENE-DYESS  SUNNY     54  27  34 S9        30.39F
BRECKENRIDGE   SUNNY     56  24  29 MISG      30.41F
GRAHAM         SUNNY     55  29  37 S7        30.41F
MINERAL WELLS  SUNNY     53  25  33 S5        30.42F
STEPHENVILLE   SUNNY     53  23  31 CALM      30.46F
COMANCHE       SUNNY     53  23  30 CALM      30.43F
BROWNWOOD      SUNNY     54  21  28 E5        30.43F
COLEMAN        SUNNY     54  29  38 SW3       30.42S
BRADY          SUNNY     54  19  26 SE7       30.40F
$$

TXZ143>147-156>162-174-175-062300-
CENTRAL TEXAS

CITY           SKY/WX    TMP DP  RH WIND       PRES   REMARKS
WACO           SUNNY     51  25  36 S3        30.47F
WACO-MCGREGOR  SUNNY     52  25  35 CALM      30.48F
HILLSBORO      SUNNY     51  26  37 NW3       30.46F
CORSICANA      SUNNY     51  24  34 CALM      30.49F
MEXIA          SUNNY     50  25  36 N6        30.47F
HEARNE         SUNNY     54  22  28 CALM      30.49S
CAMERON        SUNNY     52  27  38 CALM      30.48F
TEMPLE         SUNNY     54  25  32 N6        30.46F
KILLEEN        SUNNY     52  22  31 E8        30.44F
KILLEEN-SKYLRK SUNNY     54  25  32 S3        30.42F
FORT HOOD      SUNNY     52  22  30 VRB2      30.44F
GATESVILLE     SUNNY     52  23  32 CALM      30.47F
HAMILTON       SUNNY     54  24  31 SE7       30.44F
$$

TXZ095>097-106>112-122>126-135>138-148>153-164>167-062300-
EAST TEXAS

CITY           SKY/WX    TMP DP  RH WIND       PRES   REMARKS
PARIS          SUNNY     48  27  43 CALM      30.49F
SULPHUR SPRNGS SUNNY     49  24  36 N3        30.50F
MOUNT PLEASANT SUNNY     50  22  32 SW3       30.50F
GILMER         SUNNY     50  20  31 CALM      30.48F
MINEOLA        SUNNY     52  19  28 N6        30.49F
TYLER          SUNNY     52  17  25 CALM      30.47F
LONGVIEW       SUNNY     51  17  26 VRB3      30.47F
MARSHALL       SUNNY     52  17  25 CALM      30.50F
ATHENS         SUNNY     50  21  32 CALM      30.47F
PALESTINE      SUNNY     53  21  28 NE6       30.48F
JACKSONVILLE   SUNNY     52  19  27 N5        30.48F
HENDERSON      SUNNY     52  19  27 N5        30.49S
NACOGDOCHES    SUNNY     54  19  26 CALM      30.48S
LUFKIN         SUNNY     57  18  21 NW8       30.47F
$$

SUPPLEMENTAL OBSERVATIONS (CENTRAL)

CITY           SKY/WX    TMP DP  RH WIND       PRES   REMARKS
$$

SUPPLEMENTAL OBSERVATIONS (WEST)

CITY           SKY/WX    TMP DP  RH WIND       PRES   REMARKS
$$

SUPPLEMENTAL OBSERVATIONS (EAST)

CITY           SKY/WX    TMP DP  RH WIND       PRES   REMARKS
$$

SUPPLEMENTAL OBSERVATIONS ARE A COLLECTION OF AUTOMATED INSTRUMENTS
THAT ARE MAINTAINED BY A VARIETY OF FEDERAL AND STATE AGENCIES.
CERTAIN ELEMENTS...SUCH AS HUMIDITY VALUES AND SUSTAINED WIND
SPEEDS...MAY BE APPROXIMATED.



USA.gov is the U.S. government's official web portal to all federal, state and local government web resources and services.